Location: S�tio Afonso Gruber
(26.1760°S, 49.5250°W)
Time: 09:45:24
(UTC+00:00)

XW-2C - Visible Passes

Search period start: 26 November 2022 00:00
Search period end: 06 December 2022 00:00
Orbit: 493 x 512 km, 97.5° (Epoch: 25 November)

Date Brightness Start Highest point End Pass type
(mag) Time Alt. Az. Time Alt. Az. Time Alt. Az.
26 Nov ? 22:13:54 10° SW 22:16:06 15° WSW 22:18:18 10° WNW visible
30 Nov ? 07:49:36 10° E 07:50:33 11° ESE 07:51:30 10° SE visible
05 Dec ? 07:49:21 10° E 07:50:15 11° ESE 07:51:09 10° ESE visible
